Location: Hope
(40.9110°N, 74.9680°W)
Time: 10:26:27
(UTC-04:00)

ISS - Visible Passes

Search period start: 23 September 2020 00:00
Search period end: 03 October 2020 00:00
Orbit: 419 x 420 km, 51.6° (Epoch: 23 September)

Date Brightness Start Highest point End Pass type
(mag) Time Alt. Az. Time Alt. Az. Time Alt. Az.
23 Sep -1.7 19:32:01 10° W 19:34:51 24° NNW 19:37:42 10° NE visible
23 Sep -0.9 21:10:48 10° NW 21:12:16 13° N 21:12:16 13° N visible
24 Sep -1.1 20:22:59 10° NW 20:24:54 14° N 20:26:40 11° NNE visible
25 Sep -1.2 19:35:02 10° NW 19:37:14 16° NNW 19:39:26 10° NNE visible
25 Sep -0.8 21:13:08 10° NNW 21:13:59 13° NNW 21:13:59 13° NNW visible
26 Sep -1.2 20:25:39 10° NNW 20:27:24 13° N 20:28:19 12° NNE visible
27 Sep -1.2 19:37:56 10° NNW 19:39:42 13° N 19:41:27 10° NNE visible
27 Sep -0.7 21:14:56 10° NNW 21:15:36 13° NNW 21:15:36 13° NNW visible
28 Sep -1.5 20:27:36 10° NNW 20:29:50 16° NNE 20:29:55 16° NNE visible
29 Sep -1.3 19:40:11 10° NNW 19:42:08 14° N 19:44:06 10° NE visible
29 Sep -0.7 21:16:33 10° NW 21:17:12 14° NW 21:17:12 14° NW visible
30 Sep -2.0 20:29:13 10° NW 20:31:33 24° N 20:31:33 24° N visible
01 Oct -1.9 19:41:52 10° NNW 19:44:27 20° NNE 19:45:56 15° NE visible
01 Oct -0.6 21:18:15 10° NW 21:18:53 15° NW 21:18:53 15° NW visible
02 Oct -2.7 20:30:48 10° NW 20:33:19 41° NNW 20:33:19 41° NNW visible
